Location: Dackenheim
(49.5215°N, 8.1854°E)
Time: 03:28:29
(UTC+00:00)

AO-85 - Pass Details

Date: 22 March 2026
Orbit: 507 x 686 km, 64.8° (Epoch: 12 April)

Event Time Altitude Azimuth Distance (km) Brightness Sun altitude
Exits shadow 02:02:26 23° 52° (NE) 1,134 ? -30.7°
Drops below altitude 10° 02:04:00 10° 46° (NE) 1,743 ? -30.5°
Sets 02:06:10 0° 42° (NE) 2,624 ? -30.3°
